Regional Weather Roundup
Issued by NWS

Home | Current Version | Previous Version | Graphics & Text | Print | Product List | Glossary On
Versions: 1 2 3 4 5 6 7 8 9 10 11 12 13 14 15 16 17 18 19 20 21 22 23 24 25 26 27 28 29 30 31 32 33 34 35 36 37 38 39 40 41 42 43 44 45 46 47 48 49 50
000
ASUS45 KBOU 230607
RWRCO

WEATHER ROUNDUP FOR COLORADO
NATIONAL WEATHER SERVICE DENVER/BOULDER CO
1200 AM MDT MON OCT 23 2017

NOTE: "FAIR" INDICATES FEW OR NO CLOUDS BELOW 12000 FEET WITH NO
SIGNIFICANT WEATHER AND/OR OBSTRUCTIONS TO VISIBILITY.

COZ001>005-013-030-031-230700-
...NORTHWEST COLORADO...

CITY           SKY/WX    TMP DP  RH WIND       PRES   REMARKS
CRAIG          CLOUDY    44  29  55 CALM      30.39F
HAYDEN         CLOUDY    49  26  41 CALM      30.40F
MEEKER         FAIR      39  30  70 E6        30.43R
RABBIT EARS PA CLOUDY    32  27  80 W16G26    30.49F WCI  21
STEAMBOAT SPGS MOCLDY    44  31  59 E12       30.39F
WALDEN         NOT AVBL
$$

COZ006>008-011-230700-
...WEST CENTRAL VALLEYS...

CITY           SKY/WX    TMP DP  RH WIND       PRES   REMARKS
GRAND JUNCTION FAIR      45  20  36 E7        30.41S
MONTROSE       FAIR      39  26  59 SE8       30.47S
EAGLE          CLOUDY    40  27  59 E9        30.47S
RIFLE          FAIR      39  29  67 CALM      30.45R
DELTA          FAIR      45  22  40 CALM      30.44S
NUCLA          FAIR      43  19  39 E10       30.48S
$$

COZ017>023-064>068-230700-
...SOUTHWEST COLORADO...

CITY           SKY/WX    TMP DP  RH WIND       PRES   REMARKS
DURANGO        FAIR      36  20  52 NE3       30.42S
CORTEZ         FAIR      37  21  52 E7        30.44S
PAGOSA SPRINGS FAIR      33  18  52 CALM      30.47F
TELLURIDE      FAIR      38  19  46 SE3       30.59S
WOLF CREEK PAS FAIR      37  21  52 W7        30.67S
$$

COZ009-010-012-014-032>034-037-058>063-230700-
...CENTRAL COLORADO...

CITY           SKY/WX    TMP DP  RH WIND       PRES   REMARKS
ASPEN          FAIR      33  27  78 SW7       30.48F WCI  27
BUENA VISTA    FAIR      49  19  29 W15G23    30.37F
COPPER MTN     CLOUDY    34  21  60 MISG      30.58F
BERTHOUD PASS  CLOUDY    28  19  69 NW44G71   30.48F WCI  10
COTTONWOOD PAS FAIR      48  21  34 W14G30    30.42F
GUNNISON       FAIR      33  21  61 CALM      30.49S
KREMMLING      MOCLDY    54  23  30 SW15G23   30.41F
LEADVILLE      FAIR      37  17  44 N12G20    30.49S
MONARCH PASS   FAIR      32  16  51 W49G62    30.62F WCI  14
SALIDA         FAIR      49  19  30 NW3       30.43S
SUNLIGHT       FAIR      32  19  59 SW10G21   30.61F WCI  24
WILKERSON PASS FAIR      37  21  52 NW16G30   30.48F
$$

COZ069>075-230700-
...SAN LUIS VALLEY/SANGRE DE CRISTO MOUNTAINS...

CITY           SKY/WX    TMP DP  RH WIND       PRES   REMARKS
ALAMOSA        FAIR      31  18  58 CALM      30.42S
DEL NORTE      FAIR      35  18  49 W6        30.44F WCI  30
LA VETA PASS   FAIR      39  14  35 S31G38    30.57F
SAGUACHE       FAIR      37  21  52 N5        30.44F
$$

COZ035-036-038>040-230700-
...NORTHERN COLORADO FRONT RANGE...

CITY           SKY/WX    TMP DP  RH WIND       PRES   REMARKS
DENVER INTL AP MOCLDY    60  25  26 N8        30.15S
DMNS CITY PARK   N/A     59  24  26 NE10      30.15R
AURORA         MOCLDY    59  26  29 NW13      30.17S
FRONT RANGE AP FAIR      55  28  35 N10       30.17S
ERIE MUNI ARPT FAIR      58  23  26 W6        30.20R
BOULDER MUN AP FAIR      63  27  25 SW12      30.14R
CENTENNIAL     MOCLDY    63  25  23 W10G18    30.17F
BROOMFIELD     FAIR      63  27  25 W15G22    30.19R
FORT COLLINS   FAIR      53  29  39 VRB3      30.14R
LONGMONT       NOT AVBL
$$

COZ041-046-047-076>085-087-088-230700-
...PIKES PEAK/PALMER DIVIDE AND SOUTHERN FOOTHILLS...

CITY           SKY/WX    TMP DP  RH WIND       PRES   REMARKS
COLO. SPRINGS  FAIR      46  27  47 N13       30.22R
A. F. ACADEMY  FAIR      56  23  27 N10       30.21R
SCHRIEVER AFB  FAIR      50  26  39 N3        30.22R
CHEYENNE MTN   FAIR      56  22  27 CALM      30.19R
ELLICOTT         N/A    N/A N/A N/A CALM      30.20R
FALCON         FAIR      51  22  32 NW6       30.24F
FORT CARSON    FAIR      46  27  47 NW6       30.18R
LIMON          FAIR      34  28  79 NW3       30.16S
MONUMENT HILL  FAIR      45  23  42 SW9       30.26F
CANON CITY     FAIR      59  27  29 NW8       30.21R
WALSENBURG     FAIR      61  18  18 W18G24    30.23S
TRINIDAD       FAIR      54  25  32 W9        30.19S
$$

COZ042>045-048>051-090-091-230700-
...NORTHEAST COLORADO...

CITY           SKY/WX    TMP DP  RH WIND       PRES   REMARKS
GREELEY ARPT   FAIR      49  30  48 CALM      30.14R
AKRON          FAIR      51  27  39 W13       30.10S
BURLINGTON     FAIR      44  27  51 W10       30.09S
WRAY           NOT AVBL
YUMA           NOT AVBL
STERLING       FAIR      54  32  43 NW14      30.07F
HOLYOKE        FAIR      43  32  65 W7        30.05S
FORT MORGAN    FAIR      56  26  30 N9G33     30.12S
$$

COZ086-089-092>099-230700-
...SOUTHEAST COLORADO...

CITY           SKY/WX    TMP DP  RH WIND       PRES   REMARKS
PUEBLO         FAIR      63  23  21 W14G22    30.13R
LA JUNTA       FAIR      50  29  44 NW3       30.12R
LAMAR          FAIR      40  28  62 CALM      30.08R
SPRINGFIELD      N/A     49  31  49 W5        30.10F
$$



USA.gov is the U.S. government's official web portal to all federal, state and local government web resources and services.